This is the latest recevied weather packets stored in our database for station/object KC3AWA. If no packets are shown the sender has not sent any weather packets the latest 1 day(s).
| Time | Temp. | Humidity | Pressure | Rain* | Wind** | Luminosity | Snow |
|---|---|---|---|---|---|---|---|
| 1778056964 | 9.44° C | 98% | 1007.4 hPa | 3.05 mm | 0.45 m/s, 0° | 0 W/m² | - |
| 1778056662 | 10° C | 98% | 1007.3 hPa | 3.05 mm | 0 m/s | 0 W/m² | - |
| 1778056359 | 10° C | 98% | 1007.2 hPa | 1.27 mm | 0 m/s | 0 W/m² | - |
| 1778056057 | 10° C | 98% | 1007.3 hPa | 1.78 mm | 0 m/s | 0 W/m² | - |
| 1778055752 | 10° C | 98% | 1007.2 hPa | 3.05 mm | 0 m/s | 0 W/m² | - |
| 1778055450 | 10° C | 98% | 1007.2 hPa | 1.27 mm | 0 m/s | 0 W/m² | - |
| 1778055147 | 10° C | 98% | 1006.9 hPa | 1.78 mm | 0 m/s | 0 W/m² | - |
| 1778054845 | 10° C | 98% | 1007 hPa | 1.27 mm | 0 m/s | 0 W/m² | - |
| 1778054541 | 10° C | 98% | 1007 hPa | 3.05 mm | 0 m/s | 0 W/m² | - |
| 1778054239 | 10° C | 98% | 1007 hPa | 3.56 mm | 0 m/s | 0 W/m² | - |
| 1778053935 | 10° C | 98% | 1007.2 hPa | 3.05 mm | 0 m/s | 0 W/m² | - |
| 1778053634 | 10° C | 98% | 1007.1 hPa | 3.05 mm | 0 m/s | 0 W/m² | - |
| 1778053330 | 10° C | 98% | 1006.9 hPa | 3.05 mm | 0 m/s | 0 W/m² | - |
| 1778053028 | 10° C | 98% | 1007 hPa | 3.05 mm | 0 m/s | 0 W/m² | - |
| 1778052725 | 10° C | 98% | 1007.1 hPa | 3.05 mm | 0.45 m/s, 296° | 0 W/m² | - |
| 1778052422 | 10° C | 98% | 1007.1 hPa | 1.27 mm | 0 m/s | 0 W/m² | - |
| 1778052120 | 10° C | 98% | 1007.2 hPa | 1.78 mm | 1.34 m/s, 16° | 0 W/m² | - |
| 1778051817 | 10° C | 98% | 1007.2 hPa | 1.78 mm | 0.45 m/s, 349° | 0 W/m² | - |
| 1778051515 | 10° C | 98% | 1007.2 hPa | 1.27 mm | 0.45 m/s, 2° | 0 W/m² | - |
| 1778051211 | 10° C | 98% | 1007.3 hPa | 1.27 mm | 0 m/s | 0 W/m² | - |
| 1778050908 | 10° C | 98% | 1007.5 hPa | 3.05 mm | 0 m/s | 0 W/m² | - |
| 1778050607 | 10.56° C | 98% | 1007.3 hPa | 3.05 mm | 0.45 m/s, 352° | 0 W/m² | - |
| 1778050303 | 10.56° C | 98% | 1007.9 hPa | 3.05 mm | 0 m/s | 0 W/m² | - |
| 1778050000 | 10.56° C | 98% | 1007.8 hPa | 1.78 mm | 0 m/s | 0 W/m² | - |
| 1778049695 | 10.56° C | 98% | 1007.7 hPa | 1.27 mm | 0 m/s | 0 W/m² | - |
* Rain latest hour (hover to see other rain measurements)
** Current wind speed in m/s (hover to see current wind gust speed)